Simultaneous Nadir Overpasses (SNOs) Predictions

Prediction of SNOs between GOES-14 and AQUA Satellite Orbit:

Table of predicted SNOs for the next 14.0 days since TLE Epoch: 5/22/2020
Index Date Time (GOES-14) GOES-14 Lat,Lon AQUA Lat,Lon Distance(km) Time Diff (sec)
1 05/22/2020 20:24:05 -0.05,-104.27 0.31,-102.47 203.66 80
2 05/23/2020 08:45:20 0.03,-104.13 0.79,-107.63 397.35 80
3 05/25/2020 08:33:09 0.03,-104.14 0.14,-104.67 60.86 80
4 05/27/2020 08:23:37 0.03,-104.14 -0.46,-101.71 275.37 80
5 05/27/2020 20:45:03 -0.01,-104.28 -0.56,-106.92 300.36 80
6 05/29/2020 20:30:11 -0.02,-104.28 0.04,-103.96 35.85 80
7 05/31/2020 20:17:59 -0.03,-104.27 0.65,-101.00 372.19 80
8 06/01/2020 08:39:13 -0.00,-104.13 0.45,-106.15 230.76 80
9 06/03/2020 08:29:42 -0.00,-104.13 -0.21,-103.20 105.64 80
10 06/03/2020 20:48:27 0.03,-104.29 -0.85,-108.40 468.15 80
11 06/05/2020 08:17:31 -0.00,-104.13 -0.82,-100.24 441.99 80




NCC Satellite Simultaneous Nadir Overpasses (SNOs) Prediction Service
